Regional Weather Roundup
Issued by NWS Goodland, KS

Home | Current Version | Previous Version | Text Only | Print | Product List | Glossary Off
Versions: 1 2 3 4 5 6 7 8 9 10 11 12 13 14 15 16 17 18 19 20 21 22 23 24 25 26 27 28 29 30 31 32 33 34 35 36 37 38 39 40 41 42 43 44 45 46 47 48 49 50

000
ASUS43 KGLD 250759
RWRGLD

GOODLAND FORECAST AREA HOURLY WEATHER ROUNDUP
NATIONAL WEATHER SERVICE GOODLAND KS
200 AM MDT SAT APR 25 2015

...OFFICIAL OBSERVATIONS...

CITY           SKY/WX    TMP DP  RH WIND       PRES   REMARKS
GOODLAND KS    CLOUDY    49  42  77 NW10      29.63R
HILL CITY KS   LGT RAIN  53  49  86 N8G20     29.55F
IMPERIAL NEB   MOCLDY    49  42  77 NW7       29.60S
MCCOOK NEB     CLOUDY    52  48  86 W10       29.54F
AKRON CO       CLOUDY    48  39  71 W9        29.66S
BURLINGTON CO  CLOUDY    45  38  76 NW6       29.64S
LIMON CO       PTCLDY    40  34  79 W13       29.71F
$$

...UNOFFICIAL OBSERVATIONS...

CITY           SKY/WX    TMP DP  RH WIND       PRES   REMARKS
COLBY KS       PTCLDY    52  46  82 NW9       29.60S
GOVE KS          N/A     53  32  45 MISG        N/A
LENORA KS        N/A     52  32  46 MISG        N/A
NORTON KS      LGT RAIN  55  43  62 N13       29.50F
SHARON SPRINGS   N/A     48  43  83 N6          N/A
KIT CARSON CO    N/A     46  40  81 MISG        N/A
YUMA CO          N/A     48  38  69 W6          N/A
$$


USA.gov is the U.S. government's official web portal to all federal, state and local government web resources and services.